Date String (YYYY-MM-DD hh:mm:ss) UTC,Instrument flags,absolute air pressure of the measurement (hPa),sample flow rate (lpm),inlet stack bypass flow (lpm),air temperature of the measurement (°C),ambient temperature measured by the external sensor (°C),aerosol sample conditioner tube jacket temperature (°C),OPC LED temperature (°C),internal box temperature (°C),relative humidity of the measurement (%),span deviation,mass concentration of particles derived from Lorenz-Mie calculation of OPC scattering (μg/m³),mass concentration of particles derived from Lorenz-Mie calculation of OPC scattering (μg/m³),mass concentration of particles derived from Lorenz-Mie calculation of OPC scattering (μg/m³)
DateTimeUTC,F1_M11,P_M11,Q1_M11,Q2_M11,T1_M11,T2_M11,T3_M11,T4_M11,T5_M11,U1_M11,ZSPAN_M11,X0_M11,X2_M11,X1_M11
2023-09-11 15:00:00,SystemResetWarning,0837.9,4.99,000.00,029.1,027.9,000.0,037.3,030.7,31.0,0000.8,0009.19,0005.71,0005.21
2023-09-11 15:01:00,SystemResetWarning,0838.1,5.01,000.00,029.1,027.9,000.0,037.4,030.8,31.1,0000.5,0009.98,0005.67,0005.19
2023-09-11 15:02:00,SystemResetWarning,0838.1,5.01,000.00,029.1,027.9,000.0,037.4,030.8,31.4,0000.6,0009.97,0005.61,0005.16
2023-09-11 15:03:00,SystemResetWarning,0838.1,5.01,000.00,029.1,027.9,000.0,037.4,030.8,31.6,0000.2,0009.93,0005.56,0005.12
2023-09-11 15:04:00,SystemResetWarning,0838.1,5.00,000.00,029.2,027.9,000.0,037.4,030.8,31.4,0000.0,0009.88,0005.51,0005.08
2023-09-11 15:05:00,SystemResetWarning,0838.1,4.99,000.00,029.2,028.0,000.0,037.4,030.8,31.0,-000.0,0009.81,0005.46,0005.06
2023-09-11 15:06:00,SystemResetWarning,0838.1,4.99,000.00,029.2,028.0,000.0,037.4,030.9,31.2,0000.5,0009.73,0005.42,0005.02
2023-09-11 15:07:00,SystemResetWarning,0838.0,4.99,000.00,029.2,027.2,000.0,037.4,030.7,31.3,0000.3,0009.64,0005.38,0005.00
2023-09-11 15:08:00,SystemResetWarning,0837.9,5.00,000.00,029.1,025.6,000.0,037.3,030.4,31.2,0000.2,0009.64,0005.38,0005.00
2023-09-11 15:09:00,SystemResetWarning,0837.9,5.01,000.00,029.0,024.9,000.0,037.3,030.2,31.5,0000.2,0009.63,0005.38,0005.00
2023-09-11 15:10:00,SystemResetWarning,0837.9,5.01,000.00,028.9,025.0,000.0,037.2,030.0,31.8,-000.1,0009.50,0005.35,0004.98
2023-09-11 15:11:00,SystemResetWarning,0837.9,5.00,000.00,028.8,025.3,000.0,037.2,029.9,31.9,0000.0,0009.48,0005.33,0004.98
2023-09-11 15:12:00,SystemResetWarning,0837.9,5.00,000.00,028.7,025.6,000.0,037.2,029.9,31.9,-000.0,0009.36,0005.38,0004.99
2023-09-11 15:13:00,SystemResetWarning,0838.0,5.00,000.00,028.7,026.0,000.0,037.2,030.0,32.2,-000.3,0009.67,0005.41,0005.02
2023-09-11 15:14:00,SystemResetWarning,0838.0,4.99,000.00,028.7,026.3,000.0,037.2,030.0,32.4,-000.2,0009.69,0005.42,0005.03
2023-09-11 15:15:00,SystemResetWarning,0838.1,5.00,000.00,028.7,026.5,000.0,037.2,030.1,32.4,0000.0,0009.77,0005.44,0005.05
2023-09-11 15:16:00,SystemResetWarning,0838.1,5.00,000.00,028.7,026.7,000.0,037.2,030.2,32.6,0000.3,0010.10,0005.47,0005.07
2023-09-11 15:17:00,SystemResetWarning,0838.1,5.00,000.00,028.7,026.9,000.0,037.2,030.2,32.9,-000.1,0010.25,0005.55,0005.13
2023-09-11 15:18:00,SystemResetWarning,0838.2,5.00,000.00,028.7,027.1,000.0,037.2,030.3,33.0,-000.2,0010.39,0005.62,0005.18
2023-09-11 15:19:00,SystemResetWarning,0838.2,5.00,000.00,028.7,027.2,000.0,037.1,030.3,32.8,-000.2,0010.40,0005.63,0005.19
2023-09-11 15:20:00,SystemResetWarning,0838.2,5.00,000.00,028.7,027.3,000.0,037.1,030.4,32.8,-000.4,0010.41,0005.63,0005.22
2023-09-11 15:21:00,SystemResetWarning,0838.1,5.00,000.00,028.8,027.4,000.0,037.1,030.4,32.7,-000.4,0010.66,0005.70,0005.26
2023-09-11 15:22:00,SystemResetWarning,0838.2,4.99,000.00,028.8,027.4,000.0,037.1,030.4,32.4,-000.4,0010.75,0005.73,0005.29
2023-09-11 15:23:00,SystemResetWarning,0838.1,4.99,000.00,028.8,027.5,000.0,037.1,030.5,32.2,-000.1,0010.25,0005.74,0005.33
2023-09-11 15:24:00,SystemResetWarning,0838.2,5.01,000.00,028.8,027.5,000.0,037.1,030.5,32.0,0000.3,0009.86,0005.80,0005.37
2023-09-11 15:25:00,SystemResetWarning,0838.2,5.01,000.00,028.8,027.6,000.0,037.1,030.5,31.9,0000.0,0010.00,0005.89,0005.43
2023-09-11 15:26:00,SystemResetWarning,0838.2,5.01,000.00,028.9,027.6,000.0,037.1,030.6,31.7,-000.1,0009.99,0005.93,0005.47
2023-09-11 15:27:00,SystemResetWarning,0838.2,5.01,000.00,028.9,027.6,000.0,037.2,030.6,31.5,-000.1,0009.81,0005.97,0005.50
2023-09-11 15:28:00,SystemResetWarning,0838.2,5.00,000.00,028.9,027.7,000.0,037.2,030.6,31.3,-000.2,0010.41,0005.97,0005.52
2023-09-11 15:29:00,SystemResetWarning,0838.2,5.00,000.00,028.9,027.7,000.0,037.2,030.6,31.2,-000.3,0010.50,0005.96,0005.53
2023-09-11 15:30:00,SystemResetWarning,0838.2,5.00,000.00,028.9,027.7,000.0,037.2,030.7,31.3,-000.3,0010.64,0006.00,0005.55
2023-09-11 15:31:00,SystemResetWarning,0838.2,5.00,000.00,029.0,027.7,000.0,037.2,030.7,31.4,-000.1,0010.73,0006.05,0005.57
2023-09-11 15:32:00,SystemResetWarning,0838.2,5.00,000.00,029.0,027.8,000.0,037.2,030.7,31.4,-000.2,0010.64,0006.07,0005.58
2023-09-11 15:33:00,SystemResetWarning,0838.2,5.00,000.00,029.0,027.8,000.0,037.3,030.7,31.5,-000.4,0010.56,0006.05,0005.56
2023-09-11 15:34:00,SystemResetWarning,0838.2,5.01,000.00,029.0,027.8,000.0,037.3,030.7,31.5,-000.6,0010.52,0006.00,0005.51
2023-09-11 15:35:00,SystemResetWarning,0838.2,5.01,000.00,029.0,027.8,000.0,037.3,030.7,31.4,-000.6,0010.57,0005.98,0005.46
2023-09-11 15:36:00,SystemResetWarning,0838.2,5.00,000.00,029.1,027.8,000.0,037.3,030.8,31.5,-000.4,0010.52,0005.93,0005.42
2023-09-11 15:37:00,SystemResetWarning,0838.1,5.00,000.00,029.1,027.8,000.0,037.3,030.8,31.5,-000.4,0010.91,0005.92,0005.42
2023-09-11 15:38:00,SystemResetWarning,0838.1,4.98,000.00,029.1,027.9,000.0,037.3,030.8,31.6,-000.6,0012.00,0005.94,0005.44
2023-09-11 15:39:00,SystemResetWarning,0838.1,5.00,000.00,029.1,027.9,000.0,037.4,030.8,31.4,-000.7,0011.46,0005.98,0005.45
2023-09-11 15:40:00,SystemResetWarning,0838.2,5.01,000.00,029.1,027.9,000.0,037.4,030.8,31.4,-000.5,0011.41,0006.00,0005.47
2023-09-11 15:41:00,SystemResetWarning,0838.2,5.00,000.00,029.2,027.9,000.0,037.4,030.8,31.4,-000.4,0011.37,0006.01,0005.50
2023-09-11 15:42:00,SystemResetWarning,0838.2,5.00,000.00,029.2,027.9,000.0,037.4,030.8,31.5,-000.2,0011.47,0006.12,0005.60
2023-09-11 15:43:00,SystemResetWarning,0838.2,4.99,000.00,029.2,027.9,000.0,037.4,030.8,31.4,0000.4,0011.57,0006.22,0005.71
2023-09-11 15:44:00,SystemResetWarning,0838.2,4.99,000.00,029.2,027.9,000.0,037.4,030.9,31.3,0000.8,0011.74,0006.35,0005.80
2023-09-11 15:45:00,SystemResetWarning,0838.2,5.00,000.00,029.2,027.9,000.0,037.4,030.9,31.2,0000.5,0012.06,0006.52,0005.95
2023-09-11 15:46:00,SystemResetWarning,0838.2,5.01,000.00,029.2,028.0,000.0,037.5,030.9,31.0,0000.2,0012.48,0006.66,0006.10
2023-09-11 15:47:00,SystemResetWarning,0838.2,5.01,000.00,029.2,028.0,000.0,037.5,030.9,30.9,-000.0,0012.79,0006.77,0006.25
2023-09-11 15:48:00,SystemResetWarning,0838.2,5.00,000.00,029.3,028.0,000.0,037.5,030.9,30.9,-000.2,0012.86,0006.89,0006.35
2023-09-11 15:49:00,SystemResetWarning,0838.3,5.00,000.00,029.3,028.0,000.0,037.5,030.9,30.9,-000.3,0011.64,0007.01,0006.43
2023-09-11 15:50:00,SystemResetWarning,0838.3,5.00,000.00,029.3,028.0,000.0,037.5,030.9,30.9,-000.0,0011.70,0007.08,0006.52
2023-09-11 15:51:00,SystemResetWarning,0838.3,4.99,000.00,029.3,028.0,000.0,037.5,030.9,30.8,-000.0,0011.77,0007.16,0006.60
2023-09-11 15:52:00,SystemResetWarning,0838.3,5.00,000.00,029.3,028.0,000.0,037.5,030.9,30.8,0000.0,0012.14,0007.24,0006.65
2023-09-11 15:53:00,SystemResetWarning,0838.3,5.00,000.00,029.3,028.0,000.0,037.6,031.0,30.8,-000.2,0012.52,0007.23,0006.65
2023-09-11 15:54:00,SystemResetWarning,0838.3,5.01,000.00,029.3,028.0,000.0,037.6,031.0,30.8,-000.8,0012.59,0007.25,0006.67
2023-09-11 15:55:00,SystemResetWarning,0838.3,5.01,000.00,029.3,028.0,000.0,037.6,031.0,30.7,-001.2,0012.60,0007.27,0006.71
2023-09-11 15:56:00,SystemResetWarning,0838.3,5.01,000.00,029.4,028.1,000.0,037.6,031.0,30.7,-001.2,0012.45,0007.25,0006.75
2023-09-11 15:57:00,SystemResetWarning,0838.3,4.99,000.00,029.4,028.1,000.0,037.6,031.0,30.8,-001.1,0012.14,0007.23,0006.73
2023-09-11 15:58:00,SystemResetWarning,0838.3,4.99,000.00,029.4,028.1,000.0,037.6,031.0,30.8,-001.0,0011.96,0007.22,0006.71
2023-09-11 15:59:00,SystemResetWarning,0838.3,5.00,000.00,029.4,028.1,000.0,037.6,031.0,30.7,-000.9,0011.80,0007.21,0006.69
